Regional Weather Roundup
Issued by NWS

Home | Current Version | Previous Version | Text Only | Print | Product List | Glossary On
Versions: 1 2 3 4 5 6 7 8 9 10 11 12 13 14 15 16 17 18 19 20 21 22 23 24 25 26 27 28 29 30 31 32 33 34 35 36 37 38 39 40 41 42 43 44 45 46 47 48 49 50
000
ASUS46 KSTO 230915
RWRCA

NORTHERN AND CENTRAL CA REGIONAL WEATHER ROUNDUP
NATIONAL WEATHER SERVICE SACRAMENTO CA
100 AM PST MON JAN 23 2017

NOTE: FAIR INDICATES FEW OR NO CLOUDS BELOW 12,000 FEET WITH NO
SIGNIFICANT WEATHER AND/OR OBSTRUCTIONS TO VISIBILITY.

CAZ001-003-231000-
NORTHWEST AREA

CITY           SKY/WX    TMP DP  RH WIND       PRES   REMARKS
CRESCENT CITY  MOCLDY    44  38  79 S21G33    29.63S
UKIAH          CLOUDY    39  39 100 S3        29.70S
$$

CAZ006-505>513-231000-
BAY AREA

CITY           SKY/WX    TMP DP  RH WIND       PRES   REMARKS
SANTA ROSA     PTCLDY    39  39 100 N5        29.71R
SAN RAFAEL     N/A       43  MM  MM MISG
NAPA           MOCLDY    45  42  89 N3        29.72S FOG
CONCORD        LGT RAIN  47  41  80 S14       29.73R
OAKLAND CITY   N/A      MM  MM  MM MISG
OAKLAND        CLOUDY    49  45  86 S12       29.74R
SAN FRAN CITY  N/A       46  MM  80 MISG
SAN FRAN ARPT  CLOUDY    48  41  76 SW6       29.73R
LIVERMORE      CLOUDY    45  39  79 SW9       29.72S
HAYWARD        CLOUDY    48  41  76 S8        29.73S
REDWOOD CITY   N/A       45  MM  94 MISG
MOFFETT ARPT   LGT RAIN  46  42  86 S5        29.76R
SAN JOSE ARPT  CLOUDY    47  42  83 CALM      29.75R
$$
CAZ034-037-514>518-231000-
CENTRAL COAST

CITY           SKY/WX    TMP DP  RH WIND       PRES   REMARKS
WATSONVILLE    LGT RAIN  45  45 100 NW3       29.76S FOG
SALINAS        RAIN      45  43  93 CALM      29.76S
MONTEREY       MOCLDY    48  43  82 VRB6      29.76S
SAN LUIS OBISP MOCLDY    54  44  69 SW9       29.81S
SANTA MARIA    CLOUDY    51  46  83 SW12G20   29.84F
$$
CAZ015-016-231000-
NORTHERN SACRAMENTO VALLEY

CITY           SKY/WX    TMP DP  RH WIND       PRES   REMARKS
REDDING        CLOUDY    44  41  89 S13       29.67R
RED BLUFF      CLOUDY    44  41  89 S9        29.70R
OROVILLE       MOCLDY    44  40  85 SE6       29.71S
$$
CAZ016>018-231000-
SOUTHERN SACRAMENTO VALLEY

CITY           SKY/WX    TMP DP  RH WIND       PRES   REMARKS
AUBURN         CLOUDY    39  39 100 CALM      29.70R
BEALE AFB      MOCLDY    43  43 100 CALM      29.70R
LINCOLN        FAIR      43  41  93 S3        29.71R
MARYSVILLE     CLOUDY    44  41  89 S6        29.72S
SAC INTL ARPT  CLOUDY    45  44  97 S8        29.72R
MATHER AIRPORT NOT AVBL
DOWNTOWN SAC   N/A       45  MM  MM MISG
SAC EXEC ARPT  CLOUDY    45  45 100 S3        29.73R
VACAVILLE      CLOUDY    45  44  97 S5        29.73R
TRAVIS AFB     CLOUDY    45  43  93 CALM      29.71R
$$
CAZ019>021-231000-
SAN JOAQUIN VALLEY

CITY           SKY/WX    TMP DP  RH WIND       PRES   REMARKS
STOCKTON       LGT RAIN  47  45  93 S8        29.72R
MODESTO        CLOUDY    47  43  86 S5        29.73R
MERCED         CLOUDY    45  42  89 CALM      29.76S
LEMOORE        LGT RAIN  47  42  83 SW10      29.78S
FRESNO         LGT RAIN  48  46  93 SE6       29.77F
HANFORD        CLOUDY    48  45  89 S10       29.79R
PORTERVILLE    PTCLDY    47  46  97 SE6       29.82R
BAKERSFIELD    PTCLDY    45  40  82 NE3       29.80F
$$
CAZ011-012-071-231000-
NORTHERN MOUNTAINS

CITY           SKY/WX    TMP DP  RH WIND       PRES   REMARKS
YREKA          CLOUDY    33  31  92 CALM      29.59S
MOUNT SHASTA   CLOUDY    31  28  89 CALM      29.57F FOG
ALTURAS        CLOUDY    26  25  96 CALM      29.54F
$$
CAZ011-012-071-231000-
SIERRA NEVADA MTNS

CITY           SKY/WX    TMP DP  RH WIND       PRES   REMARKS
TRUCKEE        LGT SNOW  25  23  93 E3        29.56F
TAHOE VLY ARPT LGT SNOW  25  22  88 S5        29.55S VSB 3/4 WCI  19
MAMMOTH LAKES  SNOW      24  24  99 NW15      29.55S VSB 1/2 WCI  11
$$




USA.gov is the U.S. government's official web portal to all federal, state and local government web resources and services.